Time,TemperatureF,DewpointF,PressureIn,WindDirection,WindDirectionDegrees,WindSpeedMPH,WindSpeedGustMPH,Humidity,HourlyPrecipIn,Conditions,Clouds,dailyrainin,SoftwareType,DateUTC
2013-01-31 00:00:00,50.5,49.7,29.25,SSW,213,7.0,7.0,97,0.07,,,0.00,Wunderground v.1.15,2013-01-31 05:00:00,
2013-01-31 00:02:00,50.3,49.5,29.25,SSW,192,7.0,7.0,97,0.06,,,0.00,Wunderground v.1.15,2013-01-31 05:02:00,
2013-01-31 00:06:00,50.5,49.7,29.24,SSW,207,6.0,7.0,97,0.05,,,0.01,Wunderground v.1.15,2013-01-31 05:06:00,
2013-01-31 00:12:00,49.9,48.8,29.23,South,188,5.0,6.0,96,0.05,,,0.01,Wunderground v.1.15,2013-01-31 05:12:00,
2013-01-31 00:16:00,49.8,48.7,29.23,South,184,5.0,6.0,96,0.06,,,0.02,Wunderground v.1.15,2013-01-31 05:16:00,
2013-01-31 00:22:00,49.5,48.4,29.23,SSW,197,4.0,4.0,96,0.06,,,0.02,Wunderground v.1.15,2013-01-31 05:22:00,
2013-01-31 00:28:00,49.0,47.9,29.22,SSW,213,3.0,4.0,96,0.04,,,0.02,Wunderground v.1.15,2013-01-31 05:28:00,
2013-01-31 00:34:00,48.6,47.5,29.22,South,185,3.0,7.0,96,0.00,,,0.02,Wunderground v.1.15,2013-01-31 05:34:00,
2013-01-31 00:40:00,48.2,46.8,29.22,South,174,6.0,8.0,95,0.00,,,0.02,Wunderground v.1.15,2013-01-31 05:40:00,
2013-01-31 00:46:00,47.8,46.4,29.22,SSW,199,8.0,10.0,95,0.00,,,0.03,Wunderground v.1.15,2013-01-31 05:46:00,
2013-01-31 00:52:00,47.4,46.0,29.21,South,191,8.0,9.0,95,0.06,,,0.04,Wunderground v.1.15,2013-01-31 05:52:00,
2013-01-31 00:58:00,47.2,45.6,29.20,SSW,196,8.0,9.0,94,0.17,,,0.05,Wunderground v.1.15,2013-01-31 05:58:00,
2013-01-31 01:04:00,47.0,45.4,29.18,South,175,7.0,14.0,94,0.12,,,0.07,Wunderground v.1.15,2013-01-31 06:04:00,
2013-01-31 01:10:00,46.6,45.0,29.20,SSW,199,9.0,9.0,94,0.08,,,0.07,Wunderground v.1.15,2013-01-31 06:10:00,
2013-01-31 01:16:00,46.4,44.5,29.22,SSW,207,9.0,10.0,93,0.05,,,0.07,Wunderground v.1.15,2013-01-31 06:16:00,
2013-01-31 01:22:00,46.8,44.3,29.21,SW,236,11.0,11.0,91,0.04,,,0.08,Wunderground v.1.15,2013-01-31 06:22:00,
2013-01-31 01:28:00,47.6,43.9,29.17,WSW,255,12.0,18.0,87,0.04,,,0.08,Wunderground v.1.15,2013-01-31 06:28:00,
2013-01-31 01:34:00,47.6,43.6,29.18,SSW,196,10.0,11.0,86,0.04,,,0.08,Wunderground v.1.15,2013-01-31 06:34:00,
2013-01-31 01:40:00,47.3,43.0,29.23,SW,232,10.0,13.0,85,0.00,,,0.08,Wunderground v.1.15,2013-01-31 06:40:00,
2013-01-31 01:46:00,47.4,42.8,29.23,SSW,197,13.0,20.0,84,0.00,,,0.08,Wunderground v.1.15,2013-01-31 06:46:00,
2013-01-31 01:52:00,47.2,42.6,29.22,SSW,200,10.0,12.0,84,0.00,,,0.08,Wunderground v.1.15,2013-01-31 06:52:00,
2013-01-31 01:58:00,46.9,42.6,29.22,SW,230,9.0,12.0,85,0.00,,,0.08,Wunderground v.1.15,2013-01-31 06:58:00,
2013-01-31 02:04:00,46.6,42.3,29.22,SSW,195,8.0,10.0,85,0.00,,,0.08,Wunderground v.1.15,2013-01-31 07:04:00,
2013-01-31 02:11:00,46.2,41.9,29.21,South,180,8.0,9.0,85,0.00,,,0.08,Wunderground v.1.15,2013-01-31 07:11:00,
2013-01-31 02:16:00,46.0,41.7,29.19,South,180,8.0,12.0,85,0.00,,,0.08,Wunderground v.1.15,2013-01-31 07:16:00,
2013-01-31 02:22:00,46.3,41.7,29.23,West,281,11.0,20.0,84,0.00,,,0.09,Wunderground v.1.15,2013-01-31 07:22:00,
2013-01-31 02:28:00,44.7,39.5,29.25,WSW,240,16.0,22.0,82,0.00,,,0.09,Wunderground v.1.15,2013-01-31 07:28:00,
2013-01-31 02:34:00,43.3,38.2,29.25,SW,232,16.0,20.0,82,0.00,,,0.09,Wunderground v.1.15,2013-01-31 07:34:00,
2013-01-31 02:40:00,42.5,37.4,29.27,WNW,291,11.0,20.0,82,0.00,,,0.09,Wunderground v.1.15,2013-01-31 07:40:00,
2013-01-31 02:46:00,42.2,36.2,29.26,SE,132,9.0,10.0,79,0.00,,,0.09,Wunderground v.1.15,2013-01-31 07:46:00,
2013-01-31 02:52:00,41.9,34.9,29.27,SW,229,11.0,27.0,76,0.00,,,0.09,Wunderground v.1.15,2013-01-31 07:52:00,
2013-01-31 02:58:00,41.4,33.7,29.27,South,183,18.0,27.0,74,0.00,,,0.09,Wunderground v.1.15,2013-01-31 07:58:00,
2013-01-31 03:04:00,40.9,33.6,29.27,SSW,200,17.0,20.0,75,0.00,,,0.09,Wunderground v.1.15,2013-01-31 08:04:00,
2013-01-31 03:10:00,40.5,33.5,29.27,WSW,242,17.0,22.0,76,0.00,,,0.09,Wunderground v.1.15,2013-01-31 08:10:00,
2013-01-31 03:16:00,40.4,33.1,29.27,SW,234,14.0,26.0,75,0.00,,,0.09,Wunderground v.1.15,2013-01-31 08:16:00,
2013-01-31 03:22:00,40.1,32.8,29.27,WSW,240,12.0,12.0,75,0.00,,,0.09,Wunderground v.1.15,2013-01-31 08:22:00,
2013-01-31 03:28:00,39.9,32.9,29.27,West,261,14.0,14.0,76,0.00,,,0.10,Wunderground v.1.15,2013-01-31 08:28:00,
2013-01-31 03:34:00,39.7,32.4,29.27,WSW,242,14.0,22.0,75,0.00,,,0.10,Wunderground v.1.15,2013-01-31 08:34:00,
2013-01-31 03:40:00,39.6,32.3,29.28,SSW,197,13.0,13.0,75,0.00,,,0.10,Wunderground v.1.15,2013-01-31 08:40:00,
2013-01-31 03:46:00,39.3,32.0,29.28,WSW,238,16.0,16.0,75,0.00,,,0.10,Wunderground v.1.15,2013-01-31 08:46:00,
2013-01-31 03:52:00,39.0,32.1,29.29,West,270,16.0,21.0,76,0.00,,,0.10,Wunderground v.1.15,2013-01-31 08:52:00,
2013-01-31 03:58:00,38.7,31.8,29.29,SW,228,16.0,21.0,76,0.00,,,0.10,Wunderground v.1.15,2013-01-31 08:58:00,
2013-01-31 04:04:00,38.3,32.0,29.29,South,178,16.0,18.0,78,0.00,,,0.10,Wunderground v.1.15,2013-01-31 09:04:00,
2013-01-31 04:10:00,37.6,31.7,29.31,South,190,14.0,24.0,79,0.00,,,0.10,Wunderground v.1.15,2013-01-31 09:10:00,
2013-01-31 04:16:00,37.1,31.2,29.33,SW,231,16.0,24.0,79,0.00,,,0.10,Wunderground v.1.15,2013-01-31 09:16:00,
2013-01-31 04:22:00,36.6,30.4,29.33,SW,235,12.0,13.0,78,0.00,,,0.10,Wunderground v.1.15,2013-01-31 09:22:00,
2013-01-31 04:28:00,36.4,29.6,29.33,WSW,238,13.0,19.0,76,0.00,,,0.10,Wunderground v.1.15,2013-01-31 09:28:00,
2013-01-31 04:34:00,36.3,29.5,29.33,SW,227,16.0,24.0,76,0.00,,,0.10,Wunderground v.1.15,2013-01-31 09:34:00,
2013-01-31 04:40:00,36.1,29.3,29.33,WSW,247,16.0,22.0,76,0.00,,,0.10,Wunderground v.1.15,2013-01-31 09:40:00,
2013-01-31 04:46:00,36.0,29.2,29.34,West,261,17.0,22.0,76,0.00,,,0.10,Wunderground v.1.15,2013-01-31 09:46:00,
2013-01-31 04:52:00,35.9,28.7,29.36,WSW,248,19.0,19.0,75,0.00,,,0.10,Wunderground v.1.15,2013-01-31 09:52:00,
2013-01-31 04:58:00,35.9,27.7,29.37,WSW,246,20.0,27.0,72,0.00,,,0.10,Wunderground v.1.15,2013-01-31 09:58:00,
2013-01-31 05:04:00,35.7,27.6,29.37,WSW,253,17.0,18.0,72,0.00,,,0.10,Wunderground v.1.15,2013-01-31 10:04:00,
2013-01-31 05:10:00,35.7,27.6,29.37,West,269,15.0,28.0,72,0.00,,,0.10,Wunderground v.1.15,2013-01-31 10:10:00,
2013-01-31 05:16:00,35.6,26.8,29.37,SW,230,18.0,29.0,70,0.00,,,0.10,Wunderground v.1.15,2013-01-31 10:16:00,
2013-01-31 05:22:00,35.5,26.7,29.38,WSW,244,19.0,19.0,70,0.00,,,0.10,Wunderground v.1.15,2013-01-31 10:22:00,
2013-01-31 05:28:00,35.2,26.4,29.37,WSW,242,17.0,21.0,70,0.00,,,0.10,Wunderground v.1.15,2013-01-31 10:28:00,
2013-01-31 05:34:00,35.2,26.4,29.38,WSW,242,18.0,24.0,70,0.00,,,0.10,Wunderground v.1.15,2013-01-31 10:34:00,
2013-01-31 05:40:00,35.1,27.0,29.38,West,275,19.0,19.0,72,0.00,,,0.10,Wunderground v.1.15,2013-01-31 10:40:00,
2013-01-31 05:46:00,34.7,27.3,29.39,WSW,250,19.0,26.0,74,0.00,,,0.10,Wunderground v.1.15,2013-01-31 10:46:00,
2013-01-31 05:52:00,33.2,28.0,29.40,WSW,250,19.0,27.0,81,0.00,,,0.10,Wunderground v.1.15,2013-01-31 10:52:00,
2013-01-31 05:58:00,32.2,28.2,29.42,West,263,13.0,27.0,85,0.00,,,0.10,Wunderground v.1.15,2013-01-31 10:58:00,
2013-01-31 06:04:00,31.0,27.6,29.42,WSW,254,10.0,13.0,87,0.00,,,0.10,Wunderground v.1.15,2013-01-31 11:04:00,
2013-01-31 06:10:00,31.0,27.6,29.42,WSW,255,11.0,11.0,87,0.00,,,0.10,Wunderground v.1.15,2013-01-31 11:10:00,
2013-01-31 06:16:00,31.9,27.9,29.42,SSW,197,10.0,11.0,85,0.00,,,0.10,Wunderground v.1.15,2013-01-31 11:16:00,
2013-01-31 06:22:00,32.7,27.2,29.43,WSW,249,12.0,24.0,80,0.00,,,0.10,Wunderground v.1.15,2013-01-31 11:22:00,
2013-01-31 06:28:00,32.8,26.7,29.43,SW,225,17.0,24.0,78,0.00,,,0.10,Wunderground v.1.15,2013-01-31 11:28:00,
2013-01-31 06:34:00,32.9,26.5,29.44,SW,225,18.0,35.0,77,0.00,,,0.10,Wunderground v.1.15,2013-01-31 11:34:00,
2013-01-31 06:40:00,32.8,26.4,29.45,WSW,238,19.0,22.0,77,0.00,,,0.10,Wunderground v.1.15,2013-01-31 11:40:00,
2013-01-31 06:46:00,32.8,25.4,29.45,SW,229,24.0,31.0,74,0.00,,,0.10,Wunderground v.1.15,2013-01-31 11:46:00,
2013-01-31 06:52:00,33.0,25.3,29.45,WSW,241,22.0,23.0,73,0.00,,,0.10,Wunderground v.1.15,2013-01-31 11:52:00,
2013-01-31 06:58:00,33.2,25.1,29.46,SW,217,17.0,26.0,72,0.00,,,0.10,Wunderground v.1.15,2013-01-31 11:58:00,
2013-01-31 07:04:00,33.4,25.0,29.47,West,271,17.0,20.0,71,0.00,,,0.10,Wunderground v.1.15,2013-01-31 12:04:00,
2013-01-31 07:10:00,33.4,24.7,29.48,WSW,238,16.0,16.0,70,0.00,,,0.10,Wunderground v.1.15,2013-01-31 12:10:00,
2013-01-31 07:16:00,33.3,24.6,29.48,WSW,242,16.0,27.0,70,0.00,,,0.10,Wunderground v.1.15,2013-01-31 12:16:00,
2013-01-31 07:22:00,33.2,24.5,29.48,SW,229,16.0,23.0,70,0.00,,,0.10,Wunderground v.1.15,2013-01-31 12:22:00,
2013-01-31 07:28:00,33.0,24.6,29.49,WSW,255,16.0,23.0,71,0.00,,,0.10,Wunderground v.1.15,2013-01-31 12:28:00,
2013-01-31 07:34:00,32.8,24.4,29.49,SW,223,17.0,22.0,71,0.00,,,0.10,Wunderground v.1.15,2013-01-31 12:34:00,
2013-01-31 07:40:00,32.7,23.6,29.50,WNW,288,18.0,20.0,69,0.00,,,0.10,Wunderground v.1.15,2013-01-31 12:40:00,
2013-01-31 07:46:00,32.6,22.8,29.50,West,271,18.0,23.0,67,0.00,,,0.10,Wunderground v.1.15,2013-01-31 12:46:00,
2013-01-31 07:52:00,32.6,22.1,29.50,WSW,246,17.0,18.0,65,0.00,,,0.10,Wunderground v.1.15,2013-01-31 12:52:00,
2013-01-31 07:58:00,32.6,22.1,29.51,WSW,242,19.0,25.0,65,0.00,,,0.10,Wunderground v.1.15,2013-01-31 12:58:00,
2013-01-31 08:04:00,32.5,22.4,29.51,WSW,242,17.0,19.0,66,0.00,,,0.10,Wunderground v.1.15,2013-01-31 13:04:00,
2013-01-31 08:10:00,32.5,23.1,29.52,SW,218,14.0,18.0,68,0.00,,,0.10,Wunderground v.1.15,2013-01-31 13:10:00,
2013-01-31 08:16:00,32.3,22.6,29.51,SW,236,16.0,20.0,67,0.00,,,0.10,Wunderground v.1.15,2013-01-31 13:16:00,
2013-01-31 08:22:00,32.2,22.5,29.52,SW,216,15.0,16.0,67,0.00,,,0.10,Wunderground v.1.15,2013-01-31 13:22:00,
2013-01-31 08:28:00,31.7,23.4,29.52,WSW,241,18.0,18.0,71,0.00,,,0.10,Wunderground v.1.15,2013-01-31 13:28:00,
2013-01-31 08:34:00,30.5,25.1,29.53,SW,219,16.0,18.0,80,0.00,,,0.10,Wunderground v.1.15,2013-01-31 13:34:00,
2013-01-31 08:40:00,29.7,24.9,29.54,SW,222,13.0,16.0,82,0.00,,,0.10,Wunderground v.1.15,2013-01-31 13:40:00,
2013-01-31 08:46:00,28.1,24.7,29.54,SW,232,16.0,19.0,87,0.00,,,0.10,Wunderground v.1.15,2013-01-31 13:46:00,
2013-01-31 08:52:00,28.6,24.4,29.53,SW,236,17.0,22.0,84,0.00,,,0.10,Wunderground v.1.15,2013-01-31 13:52:00,
2013-01-31 08:58:00,29.8,23.8,29.54,WSW,247,15.0,22.0,78,0.00,,,0.10,Wunderground v.1.15,2013-01-31 13:58:00,
2013-01-31 09:04:00,30.5,23.2,29.55,West,273,12.0,15.0,74,0.00,,,0.10,Wunderground v.1.15,2013-01-31 14:04:00,
2013-01-31 09:10:00,30.5,23.5,29.55,WSW,246,10.0,10.0,75,0.00,,,0.10,Wunderground v.1.15,2013-01-31 14:10:00,
2013-01-31 09:16:00,30.2,23.9,29.55,WSW,247,11.0,11.0,77,0.00,,,0.10,Wunderground v.1.15,2013-01-31 14:16:00,
2013-01-31 09:22:00,30.0,24.0,29.55,WSW,242,12.0,16.0,78,0.00,,,0.10,Wunderground v.1.15,2013-01-31 14:22:00,
2013-01-31 09:28:00,29.7,24.0,29.56,WSW,252,13.0,20.0,79,0.00,,,0.10,Wunderground v.1.15,2013-01-31 14:28:00,
2013-01-31 09:34:00,29.4,24.3,29.56,SW,232,11.0,19.0,81,0.00,,,0.10,Wunderground v.1.15,2013-01-31 14:34:00,
2013-01-31 09:40:00,28.9,24.7,29.57,SW,225,10.0,10.0,84,0.00,,,0.10,Wunderground v.1.15,2013-01-31 14:40:00,
2013-01-31 09:46:00,28.6,24.9,29.57,WSW,254,9.0,15.0,86,0.00,,,0.10,Wunderground v.1.15,2013-01-31 14:46:00,
2013-01-31 09:52:00,30.0,23.7,29.57,West,267,15.0,18.0,77,0.00,,,0.10,Wunderground v.1.15,2013-01-31 14:52:00,
2013-01-31 09:58:00,30.6,23.6,29.57,WSW,238,14.0,18.0,75,0.00,,,0.10,Wunderground v.1.15,2013-01-31 14:58:00,
2013-01-31 10:04:00,30.1,23.4,29.58,SW,232,12.0,23.0,76,0.00,,,0.10,Wunderground v.1.15,2013-01-31 15:04:00,
2013-01-31 10:10:00,29.7,22.1,29.58,WSW,250,16.0,23.0,73,0.00,,,0.10,Wunderground v.1.15,2013-01-31 15:10:00,
2013-01-31 10:16:00,29.7,21.4,29.58,WSW,256,17.0,31.0,71,0.00,,,0.10,Wunderground v.1.15,2013-01-31 15:16:00,
2013-01-31 10:22:00,30.0,20.7,29.58,SW,226,15.0,25.0,68,0.00,,,0.10,Wunderground v.1.15,2013-01-31 15:22:00,
2013-01-31 10:28:00,30.2,20.6,29.59,WSW,254,15.0,25.0,67,0.00,,,0.10,Wunderground v.1.15,2013-01-31 15:28:00,
2013-01-31 10:34:00,30.2,19.1,29.59,SW,232,18.0,39.0,63,0.00,,,0.10,Wunderground v.1.15,2013-01-31 15:34:00,
2013-01-31 10:40:00,30.4,20.0,29.59,WSW,257,18.0,18.0,65,0.00,,,0.10,Wunderground v.1.15,2013-01-31 15:40:00,
2013-01-31 10:46:00,30.5,19.8,29.60,South,178,15.0,20.0,64,0.00,,,0.10,Wunderground v.1.15,2013-01-31 15:46:00,
2013-01-31 10:52:00,30.1,20.1,29.60,WSW,240,18.0,18.0,66,0.00,,,0.10,Wunderground v.1.15,2013-01-31 15:52:00,
2013-01-31 10:58:00,30.2,19.5,29.60,WSW,248,17.0,19.0,64,0.00,,,0.10,Wunderground v.1.15,2013-01-31 15:58:00,
2013-01-31 11:04:00,30.4,18.9,29.61,SW,231,19.0,19.0,62,0.00,,,0.10,Wunderground v.1.15,2013-01-31 16:04:00,
2013-01-31 11:10:00,29.8,19.1,29.61,SW,230,23.0,23.0,64,0.00,,,0.10,Wunderground v.1.15,2013-01-31 16:10:00,
2013-01-31 11:16:00,29.7,20.8,29.61,SSW,211,21.0,23.0,69,0.00,,,0.10,Wunderground v.1.15,2013-01-31 16:16:00,
2013-01-31 11:22:00,27.8,21.5,29.64,WSW,254,19.0,30.0,77,0.00,,,0.10,Wunderground v.1.15,2013-01-31 16:22:00,
2013-01-31 11:28:00,28.1,20.6,29.64,WSW,256,20.0,30.0,73,0.00,,,0.10,Wunderground v.1.15,2013-01-31 16:28:00,
2013-01-31 11:34:00,28.8,20.6,29.64,SW,230,17.0,21.0,71,0.00,,,0.10,Wunderground v.1.15,2013-01-31 16:34:00,
2013-01-31 11:40:00,28.5,18.2,29.65,West,259,19.0,19.0,65,0.00,,,0.10,Wunderground v.1.15,2013-01-31 16:40:00,
2013-01-31 11:46:00,28.3,18.0,29.65,WSW,242,17.0,19.0,65,0.00,,,0.10,Wunderground v.1.15,2013-01-31 16:46:00,
2013-01-31 11:52:00,27.9,18.0,29.66,WSW,253,16.0,16.0,66,0.00,,,0.10,Wunderground v.1.15,2013-01-31 16:52:00,
2013-01-31 11:58:00,27.3,18.5,29.65,WSW,244,15.0,21.0,69,0.00,,,0.10,Wunderground v.1.15,2013-01-31 16:58:00,
2013-01-31 12:04:00,27.8,18.3,29.65,SW,233,13.0,21.0,67,0.00,,,0.10,Wunderground v.1.15,2013-01-31 17:04:00,
2013-01-31 12:10:00,27.9,17.3,29.65,WSW,257,15.0,15.0,64,0.00,,,0.10,Wunderground v.1.15,2013-01-31 17:10:00,
2013-01-31 12:16:00,27.9,18.4,29.65,WSW,242,16.0,17.0,67,0.00,,,0.10,Wunderground v.1.15,2013-01-31 17:16:00,
2013-01-31 12:22:00,27.9,18.7,29.66,WSW,238,12.0,14.0,68,0.00,,,0.10,Wunderground v.1.15,2013-01-31 17:22:00,
2013-01-31 12:28:00,27.8,18.6,29.66,WSW,254,12.0,19.0,68,0.00,,,0.10,Wunderground v.1.15,2013-01-31 17:28:00,
2013-01-31 12:34:00,27.8,19.3,29.65,SW,219,14.0,18.0,70,0.00,,,0.10,Wunderground v.1.15,2013-01-31 17:34:00,
2013-01-31 12:40:00,28.0,19.1,29.66,SW,228,11.0,11.0,69,0.00,,,0.10,Wunderground v.1.15,2013-01-31 17:40:00,
2013-01-31 12:46:00,27.9,19.0,29.66,SSW,200,13.0,16.0,69,0.00,,,0.10,Wunderground v.1.15,2013-01-31 17:46:00,
2013-01-31 12:52:00,27.8,18.9,29.66,SW,232,14.0,19.0,69,0.00,,,0.10,Wunderground v.1.15,2013-01-31 17:52:00,
2013-01-31 12:58:00,28.0,18.8,29.66,SW,234,13.0,19.0,68,0.00,,,0.10,Wunderground v.1.15,2013-01-31 17:58:00,
2013-01-31 13:04:00,28.1,18.5,29.65,SW,222,12.0,12.0,67,0.00,,,0.10,Wunderground v.1.15,2013-01-31 18:04:00,
2013-01-31 13:10:00,28.3,18.0,29.66,West,278,15.0,19.0,65,0.00,,,0.10,Wunderground v.1.15,2013-01-31 18:10:00,
2013-01-31 13:16:00,28.3,18.0,29.66,WSW,240,17.0,19.0,65,0.00,,,0.10,Wunderground v.1.15,2013-01-31 18:16:00,
2013-01-31 13:22:00,29.0,18.3,29.66,SW,233,15.0,25.0,64,0.00,,,0.10,Wunderground v.1.15,2013-01-31 18:22:00,
2013-01-31 13:28:00,28.7,18.4,29.66,WNW,289,15.0,25.0,65,0.00,,,0.10,Wunderground v.1.15,2013-01-31 18:28:00,
2013-01-31 13:34:00,28.1,19.9,29.66,West,269,11.0,14.0,71,0.00,,,0.10,Wunderground v.1.15,2013-01-31 18:34:00,
2013-01-31 13:40:00,27.2,19.7,29.66,SSW,208,11.0,16.0,73,0.00,,,0.10,Wunderground v.1.15,2013-01-31 18:40:00,
2013-01-31 13:46:00,27.2,20.3,29.66,WSW,252,13.0,16.0,75,0.00,,,0.10,Wunderground v.1.15,2013-01-31 18:46:00,
2013-01-31 13:52:00,27.4,19.9,29.66,South,182,13.0,13.0,73,0.00,,,0.10,Wunderground v.1.15,2013-01-31 18:52:00,
2013-01-31 13:58:00,27.8,19.6,29.66,WSW,243,14.0,23.0,71,0.00,,,0.10,Wunderground v.1.15,2013-01-31 18:58:00,
2013-01-31 14:04:00,27.8,19.6,29.66,SW,221,14.0,14.0,71,0.00,,,0.10,Wunderground v.1.15,2013-01-31 19:04:00,
2013-01-31 14:10:00,28.1,19.9,29.66,SSW,206,14.0,14.0,71,0.00,,,0.10,Wunderground v.1.15,2013-01-31 19:10:00,
2013-01-31 14:16:00,28.0,19.8,29.66,SW,229,14.0,17.0,71,0.00,,,0.10,Wunderground v.1.15,2013-01-31 19:16:00,
2013-01-31 14:22:00,27.7,20.5,29.67,West,269,12.0,13.0,74,0.00,,,0.10,Wunderground v.1.15,2013-01-31 19:22:00,
2013-01-31 14:28:00,27.2,20.9,29.67,SSW,197,11.0,14.0,77,0.00,,,0.10,Wunderground v.1.15,2013-01-31 19:28:00,
2013-01-31 14:34:00,27.2,21.8,29.67,SSW,204,9.0,10.0,80,0.00,,,0.10,Wunderground v.1.15,2013-01-31 19:34:00,
2013-01-31 14:40:00,27.1,22.0,29.68,SSW,212,9.0,9.0,81,0.00,,,0.10,Wunderground v.1.15,2013-01-31 19:40:00,
2013-01-31 14:46:00,26.9,22.1,29.68,WSW,239,10.0,14.0,82,0.00,,,0.10,Wunderground v.1.15,2013-01-31 19:46:00,
2013-01-31 14:52:00,27.3,21.0,29.68,WSW,241,12.0,15.0,77,0.00,,,0.10,Wunderground v.1.15,2013-01-31 19:52:00,
2013-01-31 14:58:00,28.1,20.9,29.68,SW,229,13.0,19.0,74,0.00,,,0.10,Wunderground v.1.15,2013-01-31 19:58:00,
2013-01-31 15:04:00,28.5,19.3,29.69,WSW,258,13.0,23.0,68,0.00,,,0.10,Wunderground v.1.15,2013-01-31 20:04:00,
2013-01-31 15:10:00,28.6,17.2,29.69,West,273,17.0,18.0,62,0.00,,,0.10,Wunderground v.1.15,2013-01-31 20:10:00,
2013-01-31 15:16:00,28.5,16.7,29.70,SW,234,18.0,24.0,61,0.00,,,0.10,Wunderground v.1.15,2013-01-31 20:16:00,
2013-01-31 15:22:00,28.0,17.4,29.70,SSW,210,18.0,21.0,64,0.00,,,0.10,Wunderground v.1.15,2013-01-31 20:22:00,
2013-01-31 15:28:00,27.7,17.5,29.70,SW,232,17.0,21.0,65,0.00,,,0.10,Wunderground v.1.15,2013-01-31 20:28:00,
2013-01-31 15:34:00,27.8,17.2,29.70,SW,216,13.0,16.0,64,0.00,,,0.10,Wunderground v.1.15,2013-01-31 20:34:00,
2013-01-31 15:40:00,27.6,17.0,29.71,WSW,242,11.0,14.0,64,0.00,,,0.10,Wunderground v.1.15,2013-01-31 20:40:00,
2013-01-31 15:46:00,27.1,17.6,29.72,West,262,12.0,15.0,67,0.00,,,0.10,Wunderground v.1.15,2013-01-31 20:46:00,
2013-01-31 15:52:00,26.6,17.8,29.73,SW,234,12.0,13.0,69,0.00,,,0.10,Wunderground v.1.15,2013-01-31 20:52:00,
2013-01-31 15:58:00,26.2,18.1,29.73,SW,228,12.0,14.0,71,0.00,,,0.10,Wunderground v.1.15,2013-01-31 20:58:00,
2013-01-31 16:04:00,26.3,17.2,29.73,SSW,207,13.0,17.0,68,0.00,,,0.10,Wunderground v.1.15,2013-01-31 21:04:00,
2013-01-31 16:10:00,26.7,16.1,29.74,WSW,238,14.0,30.0,64,0.00,,,0.10,Wunderground v.1.15,2013-01-31 21:10:00,
2013-01-31 16:16:00,26.7,13.1,29.74,SW,225,19.0,30.0,56,0.00,,,0.10,Wunderground v.1.15,2013-01-31 21:16:00,
2013-01-31 16:22:00,26.7,13.1,29.75,SW,232,18.0,27.0,56,0.00,,,0.10,Wunderground v.1.15,2013-01-31 21:22:00,
2013-01-31 16:28:00,26.5,12.5,29.75,SSW,207,16.0,27.0,55,0.00,,,0.10,Wunderground v.1.15,2013-01-31 21:28:00,
2013-01-31 16:34:00,26.5,12.9,29.75,West,266,15.0,20.0,56,0.00,,,0.10,Wunderground v.1.15,2013-01-31 21:34:00,
2013-01-31 16:40:00,26.1,15.6,29.77,West,279,14.0,14.0,64,0.00,,,0.10,Wunderground v.1.15,2013-01-31 21:40:00,
2013-01-31 16:46:00,24.6,17.5,29.77,WSW,248,15.0,16.0,74,0.00,,,0.10,Wunderground v.1.15,2013-01-31 21:46:00,
2013-01-31 16:52:00,23.7,17.8,29.78,WSW,249,15.0,19.0,78,0.00,,,0.10,Wunderground v.1.15,2013-01-31 21:52:00,
2013-01-31 16:58:00,24.0,16.0,29.78,SW,219,15.0,19.0,71,0.00,,,0.10,Wunderground v.1.15,2013-01-31 21:58:00,
2013-01-31 17:04:00,24.3,13.9,29.78,SW,219,16.0,23.0,64,0.00,,,0.10,Wunderground v.1.15,2013-01-31 22:04:00,
2013-01-31 17:10:00,24.5,14.1,29.79,SW,222,14.0,15.0,64,0.00,,,0.10,Wunderground v.1.15,2013-01-31 22:10:00,
2013-01-31 17:16:00,24.5,12.6,29.79,WSW,252,14.0,20.0,60,0.00,,,0.10,Wunderground v.1.15,2013-01-31 22:16:00,
2013-01-31 17:22:00,24.3,12.8,29.79,WNW,296,14.0,15.0,61,0.00,,,0.10,Wunderground v.1.15,2013-01-31 22:22:00,
2013-01-31 17:28:00,24.3,12.0,29.80,WSW,240,14.0,19.0,59,0.00,,,0.10,Wunderground v.1.15,2013-01-31 22:28:00,
2013-01-31 17:34:00,24.3,12.0,29.80,West,277,15.0,20.0,59,0.00,,,0.10,Wunderground v.1.15,2013-01-31 22:34:00,
2013-01-31 17:40:00,24.3,12.0,29.80,WSW,244,12.0,12.0,59,0.00,,,0.10,Wunderground v.1.15,2013-01-31 22:40:00,
2013-01-31 17:46:00,24.3,11.6,29.80,SW,225,9.0,14.0,58,0.00,,,0.10,Wunderground v.1.15,2013-01-31 22:46:00,
2013-01-31 17:52:00,24.4,12.9,29.81,WSW,239,13.0,21.0,61,0.00,,,0.10,Wunderground v.1.15,2013-01-31 22:52:00,
2013-01-31 17:58:00,24.3,13.1,29.80,SW,227,13.0,21.0,62,0.00,,,0.10,Wunderground v.1.15,2013-01-31 22:58:00,
2013-01-31 18:04:00,24.5,12.2,29.81,WSW,249,12.0,16.0,59,0.00,,,0.10,Wunderground v.1.15,2013-01-31 23:04:00,
2013-01-31 18:10:00,24.6,11.9,29.81,WSW,245,14.0,22.0,58,0.00,,,0.10,Wunderground v.1.15,2013-01-31 23:10:00,
2013-01-31 18:16:00,24.5,12.2,29.81,WSW,250,14.0,22.0,59,0.00,,,0.10,Wunderground v.1.15,2013-01-31 23:16:00,
2013-01-31 18:22:00,24.5,12.2,29.81,SW,223,11.0,13.0,59,0.00,,,0.10,Wunderground v.1.15,2013-01-31 23:22:00,
2013-01-31 18:28:00,24.4,12.5,29.82,SW,235,11.0,13.0,60,0.00,,,0.10,Wunderground v.1.15,2013-01-31 23:28:00,
2013-01-31 18:34:00,24.3,12.4,29.82,SW,234,10.0,15.0,60,0.00,,,0.10,Wunderground v.1.15,2013-01-31 23:34:00,
2013-01-31 18:40:00,24.2,12.3,29.82,WSW,246,9.0,11.0,60,0.00,,,0.10,Wunderground v.1.15,2013-01-31 23:40:00,
2013-01-31 18:46:00,24.3,12.4,29.82,SW,233,9.0,14.0,60,0.00,,,0.10,Wunderground v.1.15,2013-01-31 23:46:00,
2013-01-31 18:52:00,24.5,12.6,29.82,SSW,210,9.0,18.0,60,0.00,,,0.10,Wunderground v.1.15,2013-01-31 23:52:00,
2013-01-31 18:58:00,24.6,13.1,29.82,SW,234,9.0,18.0,61,0.00,,,0.10,Wunderground v.1.15,2013-01-31 23:58:00,
2013-01-31 19:04:00,24.6,12.7,29.82,SW,227,9.0,12.0,60,0.00,,,0.10,Wunderground v.1.15,2013-02-01 00:04:00,
2013-01-31 19:10:00,24.7,13.1,29.82,SSW,213,9.0,9.0,61,0.00,,,0.10,Wunderground v.1.15,2013-02-01 00:10:00,
2013-01-31 19:16:00,24.8,12.9,29.82,SW,214,9.0,12.0,60,0.00,,,0.10,Wunderground v.1.15,2013-02-01 00:16:00,
2013-01-31 19:22:00,24.9,13.0,29.83,SW,214,9.0,18.0,60,0.00,,,0.10,Wunderground v.1.15,2013-02-01 00:22:00,
2013-01-31 19:28:00,25.0,13.1,29.83,SW,217,10.0,18.0,60,0.00,,,0.10,Wunderground v.1.15,2013-02-01 00:28:00,
2013-01-31 19:34:00,25.1,13.5,29.82,WSW,254,11.0,13.0,61,0.00,,,0.10,Wunderground v.1.15,2013-02-01 00:34:00,
2013-01-31 19:40:00,25.1,13.9,29.82,SW,217,10.0,10.0,62,0.00,,,0.10,Wunderground v.1.15,2013-02-01 00:40:00,
2013-01-31 19:46:00,25.1,13.5,29.82,SSW,192,10.0,13.0,61,0.00,,,0.10,Wunderground v.1.15,2013-02-01 00:46:00,
2013-01-31 19:52:00,25.1,13.5,29.82,SSW,203,9.0,9.0,61,0.00,,,0.10,Wunderground v.1.15,2013-02-01 00:52:00,
2013-01-31 19:58:00,25.1,13.9,29.82,SSW,194,8.0,9.0,62,0.00,,,0.10,Wunderground v.1.15,2013-02-01 00:58:00,
2013-01-31 20:04:00,25.1,13.5,29.82,SSW,196,8.0,15.0,61,0.00,,,0.10,Wunderground v.1.15,2013-02-01 01:04:00,
2013-01-31 20:10:00,25.2,14.0,29.83,South,188,9.0,11.0,62,0.00,,,0.10,Wunderground v.1.15,2013-02-01 01:10:00,
2013-01-31 20:16:00,25.2,13.2,29.82,South,187,10.0,15.0,60,0.00,,,0.10,Wunderground v.1.15,2013-02-01 01:16:00,
2013-01-31 20:22:00,25.3,13.3,29.82,SW,219,10.0,10.0,60,0.00,,,0.10,Wunderground v.1.15,2013-02-01 01:22:00,
2013-01-31 20:28:00,25.2,13.6,29.82,WSW,242,8.0,11.0,61,0.00,,,0.10,Wunderground v.1.15,2013-02-01 01:28:00,
2013-01-31 20:34:00,25.3,13.3,29.82,SSW,208,9.0,12.0,60,0.00,,,0.10,Wunderground v.1.15,2013-02-01 01:34:00,
2013-01-31 20:40:00,25.3,13.3,29.82,SSW,205,9.0,9.0,60,0.00,,,0.10,Wunderground v.1.15,2013-02-01 01:40:00,
2013-01-31 20:46:00,25.3,13.3,29.82,SSW,202,8.0,9.0,60,0.00,,,0.10,Wunderground v.1.15,2013-02-01 01:46:00,
2013-01-31 20:52:00,25.2,13.2,29.82,SSW,213,7.0,8.0,60,0.00,,,0.10,Wunderground v.1.15,2013-02-01 01:52:00,
2013-01-31 20:58:00,25.3,13.3,29.82,SSW,213,8.0,16.0,60,0.00,,,0.10,Wunderground v.1.15,2013-02-01 01:58:00,
2013-01-31 21:04:00,25.4,13.1,29.82,SW,220,10.0,14.0,59,0.00,,,0.10,Wunderground v.1.15,2013-02-01 02:04:00,
2013-01-31 21:10:00,25.3,13.3,29.82,SW,224,9.0,9.0,60,0.00,,,0.10,Wunderground v.1.15,2013-02-01 02:10:00,
2013-01-31 21:16:00,25.3,13.7,29.82,SW,226,6.0,12.0,61,0.00,,,0.10,Wunderground v.1.15,2013-02-01 02:16:00,
2013-01-31 21:22:00,25.4,13.4,29.82,WSW,250,8.0,8.0,60,0.00,,,0.10,Wunderground v.1.15,2013-02-01 02:22:00,
2013-01-31 21:28:00,25.4,13.4,29.82,SW,219,8.0,10.0,60,0.00,,,0.10,Wunderground v.1.15,2013-02-01 02:28:00,
2013-01-31 21:34:00,25.4,13.4,29.82,SSW,194,8.0,9.0,60,0.00,,,0.10,Wunderground v.1.15,2013-02-01 02:34:00,
2013-01-31 21:40:00,25.5,13.5,29.83,SSW,207,9.0,9.0,60,0.00,,,0.10,Wunderground v.1.15,2013-02-01 02:40:00,
2013-01-31 21:46:00,25.6,14.0,29.83,SSW,193,9.0,11.0,61,0.00,,,0.10,Wunderground v.1.15,2013-02-01 02:46:00,
2013-01-31 21:52:00,25.6,14.4,29.83,SW,218,9.0,9.0,62,0.00,,,0.10,Wunderground v.1.15,2013-02-01 02:52:00,
2013-01-31 21:58:00,25.6,14.0,29.83,SW,229,9.0,12.0,61,0.00,,,0.10,Wunderground v.1.15,2013-02-01 02:58:00,
2013-01-31 22:04:00,25.6,15.1,29.84,South,191,10.0,13.0,64,0.00,,,0.10,Wunderground v.1.15,2013-02-01 03:04:00,
2013-01-31 22:10:00,25.2,15.8,29.84,SW,225,11.0,11.0,67,0.00,,,0.10,Wunderground v.1.15,2013-02-01 03:10:00,
2013-01-31 22:16:00,25.2,15.8,29.84,SSW,207,10.0,11.0,67,0.00,,,0.10,Wunderground v.1.15,2013-02-01 03:16:00,
2013-01-31 22:22:00,25.3,15.5,29.84,South,186,9.0,10.0,66,0.00,,,0.10,Wunderground v.1.15,2013-02-01 03:22:00,
2013-01-31 22:28:00,25.4,15.3,29.84,WSW,240,8.0,10.0,65,0.00,,,0.10,Wunderground v.1.15,2013-02-01 03:28:00,
2013-01-31 22:34:00,25.4,16.3,29.84,SSW,205,10.0,21.0,68,0.00,,,0.10,Wunderground v.1.15,2013-02-01 03:34:00,
2013-01-31 22:40:00,25.3,16.5,29.83,SW,221,12.0,13.0,69,0.00,,,0.10,Wunderground v.1.15,2013-02-01 03:40:00,
2013-01-31 22:46:00,25.3,16.5,29.84,SW,221,9.0,13.0,69,0.00,,,0.10,Wunderground v.1.15,2013-02-01 03:46:00,
2013-01-31 22:52:00,25.2,16.8,29.84,SW,229,8.0,10.0,70,0.00,,,0.10,Wunderground v.1.15,2013-02-01 03:52:00,
2013-01-31 22:58:00,25.2,17.1,29.83,SW,219,8.0,10.0,71,0.00,,,0.10,Wunderground v.1.15,2013-02-01 03:58:00,
2013-01-31 23:04:00,25.1,16.7,29.84,SW,225,9.0,9.0,70,0.00,,,0.10,Wunderground v.1.15,2013-02-01 04:04:00,
2013-01-31 23:10:00,25.1,16.7,29.84,SW,217,8.0,8.0,70,0.00,,,0.10,Wunderground v.1.15,2013-02-01 04:10:00,
2013-01-31 23:16:00,25.1,16.7,29.84,SSW,204,6.0,9.0,70,0.00,,,0.10,Wunderground v.1.15,2013-02-01 04:16:00,
2013-01-31 23:22:00,25.1,16.4,29.84,SSW,205,6.0,10.0,69,0.00,,,0.10,Wunderground v.1.15,2013-02-01 04:22:00,
2013-01-31 23:28:00,25.1,16.4,29.84,SW,221,8.0,12.0,69,0.00,,,0.10,Wunderground v.1.15,2013-02-01 04:28:00,
2013-01-31 23:34:00,25.1,16.0,29.84,South,191,9.0,16.0,68,0.00,,,0.10,Wunderground v.1.15,2013-02-01 04:34:00,
2013-01-31 23:40:00,25.1,16.0,29.84,SW,236,9.0,9.0,68,0.00,,,0.10,Wunderground v.1.15,2013-02-01 04:40:00,
2013-01-31 23:46:00,25.1,16.4,29.84,SW,219,8.0,12.0,69,0.00,,,0.10,Wunderground v.1.15,2013-02-01 04:46:00,
2013-01-31 23:52:00,25.2,16.1,29.84,SSW,213,9.0,9.0,68,0.00,,,0.10,Wunderground v.1.15,2013-02-01 04:52:00,
2013-01-31 23:58:00,25.1,16.0,29.83,SW,221,7.0,9.0,68,0.00,,,0.10,Wunderground v.1.15,2013-02-01 04:58:00,